Location: Colossi of Memnon
(25.7167°N, 32.6167°E)
Time: 03:53:59
(UTC+00:00)

Envisat - Pass Details

Date: 21 September 2021
Orbit: 764 x 766 km, 98.2° (Epoch: 15 October)

Event Time Altitude Azimuth Distance (km) Brightness Sun altitude
Rises 01:32:47 0° 43° (NE) 3,227 7.1 -28.6°
Reaches altitude 10° 01:37:07 10° 79° (E) 2,296 6.4 -27.7°
Maximum altitude 01:38:27 11° 94° (E) 2,228 6.2 -27.4°
Drops below altitude 10° 01:39:46 10° 110° (ESE) 2,293 6.1 -27.1°
Sets 01:44:04 0° 145° (SE) 3,214 6.5 -26.1°
